Weather in Manaus

Brazil     3˚07′40″S   60˚01′19″W
temp.,
°C
wind,
m/s
gust,
m/s
humid.,
%
clouds,
%
prec.,
mm/h
press.,
hPa
HPBL,
m
28 november, sat
sat2823:00+25˚sse118756 0.0 100957
02:00+24˚sse018866 0.0 100856
05:00+24˚sse1291100 0.0 100973
08:00+26˚ese238274 0.0 1011331
11:00+31˚ene366294 0.0 1011773
14:00+33˚ene245496 0.0 10071070
17:00+32˚se126498 0.0 1006121
20:00+28˚ese237393 0.2 100970
29 november, sun
sun2923:00+26˚se2281100 0.3 100965
02:00+25˚sse1184100 0.9 100870
05:00+24˚se1189100 0.9 100969
08:00+27˚ese1282100 1.1 1011315
11:00+30˚ene356998 2.5 1011524
14:00+32˚e246199 4.3 1007657
17:00+31˚se127190 0.4 1007127
20:00+28˚nnw237962 1.3 100877
30 november, mon
mon3023:00+26˚se2386100 0.6 1010117
02:00+26˚ne2385100 0.6 1008143
05:00+25˚n118896 0.0 100943
08:00+28˚ne127583 0.0 1011430
11:00+31˚ne246273 0.0 1011684
14:00+33˚nne225687 0.0 1006989
17:00+31˚ese1168100 0.4 1006117
20:00+26˚se1185100 3.4 100768
1 december, tue
tue123:00+26˚sse1188100 0.0 100961
02:00+25˚ese2290100 3.3 100778
05:00+24˚s5895100 10.4 1008230
08:00+24˚ssw2592100 10.8 1011238
11:00+28˚wsw1172100 0.4 1010256
14:00+31˚ne1159100 0.6 1007782
17:00+29˚s2379100 2.5 1007218
20:00+26˚wsw2288100 4.9 100886
2 december, wed
wed223:00+25˚wsw118899 0.0 100965
02:00+24˚wsw129194 0.3 100775
05:00+24˚ssw118975 0.0 100772
08:00+26˚sse008353 0.2 1010248
11:00+30˚ene126720 1.8 1010632
14:00+31˚e235734 2.4 1007740
17:00+29˚ene3473100 0.6 1007228
20:00+27˚ene1183100 1.1 100939